Location: Northern Prairie Star Party
(53.2167°N, 112.5333°W)
Time: 00:10:32
(UTC-06:00)

MaSat-1 - Visible Passes

Search period start: 30 August 2014 00:00
Search period end: 09 September 2014 00:00
Orbit: 278 x 737 km, 69.5° (Epoch: 29 August)

Date Brightness Start Highest point End Pass type
(mag) Time Alt. Az. Time Alt. Az. Time Alt. Az.
30 Aug ? 21:39:16 10° NNW 21:43:39 30° NE 21:46:50 14° E visible
30 Aug ? 23:16:18 10° NW 23:21:04 61° WSW 23:21:38 56° SSW visible
31 Aug ? 21:20:51 10° NNW 21:25:09 29° NE 21:28:44 12° E visible
31 Aug ? 22:57:51 10° NW 23:02:37 66° WSW 23:03:31 51° S visible
01 Sep ? 00:37:39 10° W 00:38:18 10° W 00:38:18 10° W visible
01 Sep ? 21:02:17 10° NNW 21:06:29 27° NE 21:10:19 10° E visible
01 Sep ? 22:39:14 10° NW 22:44:00 71° WSW 22:45:17 44° S visible
02 Sep ? 00:18:33 10° W 00:19:56 11° W 00:20:04 11° W visible
02 Sep ? 22:20:28 10° NW 22:25:14 76° WSW 22:26:56 36° SSE visible
02 Sep ? 23:59:26 10° WNW 00:01:13 12° W 00:01:42 12° WSW visible
03 Sep ? 22:01:32 10° NW 22:06:18 82° WSW 22:08:27 29° SSE visible
03 Sep ? 23:40:14 10° WNW 23:42:20 13° W 23:43:13 13° WSW visible
04 Sep ? 21:42:27 10° NW 21:47:12 89° SW 21:49:51 22° SSE visible
04 Sep ? 23:20:55 10° WNW 23:23:17 14° W 23:24:37 13° WSW visible
05 Sep ? 21:23:13 10° NW 21:27:56 84° NE 21:31:09 16° SE visible
05 Sep ? 23:01:29 10° WNW 23:04:05 16° WSW 23:05:54 12° SW visible
06 Sep ? 21:03:49 10° NNW 21:08:30 78° NE 21:12:19 11° SE visible
06 Sep ? 22:41:54 10° WNW 22:44:43 17° WSW 22:47:04 11° SW visible
07 Sep ? 20:44:16 10° NNW 20:48:54 71° NE 20:52:55 10° SE visible
07 Sep ? 22:22:11 10° WNW 22:25:12 18° WSW 22:27:57 10° SSW visible
08 Sep ? 22:02:19 10° WNW 22:05:31 20° WSW 22:08:24 10° SSW visible
